PBD449 UUWW-USTR

Flight info

Callsign PBD449
Flight time 2h 23m
Altitude 35000
Route OLMUN3W OLMUN T629 IPSIL T830 LAMGU N604 OGSIN P983 GINPA GINPA1P
Aircraft B738/M-SDE2E3FGHIRWXY/LB1

Departure

Time 2026-04-21 13:21
Airport Vnukovo International Airport (UUWW)

Arrival

Time 2026-04-21 15:44
Airport Roshchino International Airport (USTR)
Time Latitude Longitude Altitude Speed Heading
2026-04-21 12:50 55.60037 37.27923 693 ft 0 kts 24°
2026-04-21 13:14 55.60038 37.27924 693 ft 1 kts 24°
2026-04-21 13:14 55.60077 37.27953 690 ft 10 kts 16°
2026-04-21 13:14 55.60108 37.27896 692 ft 8 kts 262°
2026-04-21 13:15 55.60077 37.27821 693 ft 8 kts 225°
2026-04-21 13:15 55.60020 37.27743 691 ft 12 kts 213°
2026-04-21 13:15 55.59962 37.27637 693 ft 12 kts 232°
2026-04-21 13:15 55.59913 37.27521 692 ft 12 kts 226°
2026-04-21 13:16 55.59848 37.27401 688 ft 16 kts 226°
2026-04-21 13:16 55.59754 37.27228 679 ft 22 kts 226°
2026-04-21 13:16 55.59658 37.27048 685 ft 19 kts 226°
2026-04-21 13:16 55.59578 37.26899 685 ft 8 kts 225°
2026-04-21 13:17 55.59525 37.26894 689 ft 8 kts 157°
2026-04-21 13:17 55.59471 37.26882 686 ft 9 kts 215°
2026-04-21 13:17 55.59417 37.26798 687 ft 12 kts 222°
2026-04-21 13:17 55.59339 37.26674 689 ft 19 kts 222°
2026-04-21 13:18 55.59246 37.26547 691 ft 14 kts 208°
2026-04-21 13:18 55.59161 37.26481 685 ft 13 kts 204°
2026-04-21 13:18 55.59078 37.26415 691 ft 14 kts 204°
2026-04-21 13:18 55.58972 37.26334 688 ft 19 kts 203°
2026-04-21 13:19 55.58857 37.26246 689 ft 12 kts 204°
2026-04-21 13:19 55.58813 37.26122 687 ft 12 kts 249°
2026-04-21 13:19 55.58784 37.25987 687 ft 12 kts 250°
2026-04-21 13:19 55.58797 37.25875 690 ft 9 kts 355°
2026-04-21 13:20 55.58821 37.25890 693 ft 0 kts 23°
2026-04-21 13:20 55.58825 37.25893 693 ft 3 kts 23°
2026-04-21 13:20 55.59033 37.26054 692 ft 71 kts 23°
2026-04-21 13:20 55.59715 37.26574 698 ft 140 kts 23°
2026-04-21 13:21 55.60779 37.27382 913 ft 180 kts 22°
2026-04-21 13:21 55.61946 37.28239 1943 ft 180 kts 20°
2026-04-21 13:21 55.63121 37.29109 2826 ft 189 kts 21°
2026-04-21 13:21 55.64355 37.30033 3314 ft 197 kts 21°
2026-04-21 13:22 55.65629 37.31009 3942 ft 199 kts 28°
2026-04-21 13:22 55.66613 37.32701 4699 ft 202 kts 57°
2026-04-21 13:22 55.66974 37.35155 5252 ft 216 kts 87°
2026-04-21 13:22 55.66598 37.37848 5683 ft 234 kts 108°
2026-04-21 13:23 55.65950 37.40507 5971 ft 237 kts 111°
2026-04-21 13:23 55.64922 37.42779 6000 ft 248 kts 144°
2026-04-21 13:23 55.63313 37.44202 6281 ft 267 kts 152°
2026-04-21 13:23 55.61622 37.45623 7049 ft 270 kts 151°
2026-04-21 13:24 55.59914 37.47061 7842 ft 274 kts 153°
2026-04-21 13:24 55.58043 37.47792 8610 ft 282 kts 181°
2026-04-21 13:24 55.56171 37.46874 9358 ft 289 kts 211°
2026-04-21 13:24 55.54623 37.44579 10050 ft 293 kts 225°
2026-04-21 13:25 55.53168 37.42038 10777 ft 295 kts 225°
2026-04-21 13:25 55.51705 37.39498 11523 ft 296 kts 225°
2026-04-21 13:25 55.50264 37.36881 12228 ft 298 kts 235°
2026-04-21 13:25 55.49419 37.33588 12901 ft 296 kts 262°
2026-04-21 13:26 55.49469 37.30009 13619 ft 292 kts 289°
2026-04-21 13:26 55.50354 37.26825 14248 ft 289 kts 311°
2026-04-21 13:26 55.51871 37.24578 14841 ft 286 kts 338°
2026-04-21 13:26 55.53790 37.23843 15450 ft 284 kts
2026-04-21 13:27 55.55715 37.24615 15946 ft 291 kts 26°
2026-04-21 13:27 55.57356 37.26749 16438 ft 298 kts 47°
2026-04-21 13:27 55.58631 37.29686 16978 ft 305 kts 53°
2026-04-21 13:27 55.59858 37.32770 17597 ft 309 kts 57°
2026-04-21 13:28 55.60632 37.36355 18150 ft 318 kts 79°
2026-04-21 13:28 55.60596 37.40286 18699 ft 325 kts 101°
2026-04-21 13:28 55.59941 37.44139 19263 ft 329 kts 106°
2026-04-21 13:28 55.59198 37.47987 19792 ft 332 kts 106°
2026-04-21 13:29 55.58453 37.51879 20338 ft 335 kts 106°
2026-04-21 13:29 55.57717 37.55803 20877 ft 338 kts 106°
2026-04-21 13:29 55.57191 37.59842 21400 ft 337 kts 88°
2026-04-21 13:29 55.57531 37.63906 21898 ft 335 kts 68°
2026-04-21 13:30 55.58576 37.67564 22402 ft 335 kts 58°
2026-04-21 13:30 55.59785 37.71125 22851 ft 339 kts 57°
2026-04-21 13:30 55.60994 37.74666 23382 ft 341 kts 57°
2026-04-21 13:30 55.62203 37.78281 23858 ft 343 kts 58°
2026-04-21 13:31 55.63411 37.81941 24307 ft 345 kts 58°
2026-04-21 13:31 55.64392 37.85820 24721 ft 350 kts 75°
2026-04-21 13:31 55.64595 37.90116 25161 ft 354 kts 95°
2026-04-21 13:31 55.64138 37.94413 25623 ft 357 kts 101°
2026-04-21 13:32 55.63558 37.98706 26003 ft 360 kts 102°
2026-04-21 13:32 55.62962 38.03033 26404 ft 362 kts 101°
2026-04-21 13:32 55.62385 38.07377 26846 ft 363 kts 101°
2026-04-21 13:32 55.61820 38.11736 27255 ft 365 kts 101°
2026-04-21 13:33 55.61257 38.16131 27604 ft 369 kts 100°
2026-04-21 13:33 55.60684 38.20639 27644 ft 380 kts 100°
2026-04-21 13:33 55.60099 38.25253 27731 ft 390 kts 101°
2026-04-21 13:33 55.59498 38.29980 27879 ft 398 kts 101°
2026-04-21 13:34 55.58884 38.34766 28227 ft 400 kts 101°
2026-04-21 13:34 55.58270 38.39557 28652 ft 400 kts 99°
2026-04-21 13:34 55.58101 38.44425 28990 ft 397 kts 81°
2026-04-21 13:34 55.58772 38.49121 29335 ft 395 kts 64°
2026-04-21 13:35 55.60093 38.53381 29689 ft 395 kts 58°
2026-04-21 13:35 55.61534 38.57535 29993 ft 397 kts 58°
2026-04-21 13:35 55.62951 38.61666 30203 ft 400 kts 58°
2026-04-21 13:35 55.64381 38.65916 30416 ft 403 kts 59°
2026-04-21 13:36 55.65806 38.70222 30655 ft 406 kts 59°
2026-04-21 13:36 55.67227 38.74545 30880 ft 408 kts 59°
2026-04-21 13:36 55.68659 38.78909 31092 ft 411 kts 59°
2026-04-21 13:36 55.70102 38.83304 31309 ft 413 kts 59°
2026-04-21 13:37 55.71550 38.87717 31521 ft 416 kts 59°
2026-04-21 13:37 55.73009 38.92159 31732 ft 418 kts 58°
2026-04-21 13:37 55.74750 38.96288 31897 ft 419 kts 47°
2026-04-21 13:37 55.76773 39.00019 32118 ft 421 kts 45°
2026-04-21 13:38 55.78844 39.03724 32309 ft 423 kts 45°
2026-04-21 13:38 55.80906 39.07478 32501 ft 425 kts 46°
2026-04-21 13:38 55.82948 39.11296 32696 ft 427 kts 46°
2026-04-21 13:38 55.84989 39.15162 32884 ft 429 kts 46°
2026-04-21 13:39 55.87036 39.19078 32985 ft 433 kts 46°
2026-04-21 13:39 55.89095 39.23022 33059 ft 438 kts 46°
2026-04-21 13:39 55.93285 39.31019 33287 ft 444 kts 45°
2026-04-21 13:40 55.95499 39.34854 33465 ft 445 kts 42°
2026-04-21 13:40 55.97754 39.38543 33675 ft 445 kts 41°
2026-04-21 13:40 56.00045 39.42257 33880 ft 446 kts 41°
2026-04-21 13:40 56.02328 39.46002 34071 ft 446 kts 42°
2026-04-21 13:41 56.04597 39.49777 34248 ft 446 kts 43°
2026-04-21 13:41 56.06862 39.53577 34411 ft 446 kts 43°
2026-04-21 13:41 56.08899 39.57790 34537 ft 448 kts 55°
2026-04-21 13:41 56.10589 39.62468 34760 ft 447 kts 57°
2026-04-21 13:42 56.13885 39.71941 34830 ft 450 kts 57°
2026-04-21 13:42 56.17232 39.81493 34832 ft 452 kts 57°
2026-04-21 13:43 56.20602 39.91003 34821 ft 450 kts 56°
2026-04-21 13:43 56.23958 40.00461 34819 ft 447 kts 56°
2026-04-21 13:44 56.27285 40.09875 34819 ft 445 kts 57°
2026-04-21 13:44 56.30569 40.19207 34821 ft 444 kts 57°
2026-04-21 13:45 56.33878 40.28648 34839 ft 448 kts 57°
2026-04-21 13:45 56.37222 40.38227 34826 ft 453 kts 57°
2026-04-21 13:46 56.40589 40.47910 34824 ft 456 kts 57°
2026-04-21 13:46 56.43965 40.57657 34820 ft 458 kts 57°
2026-04-21 13:47 56.46805 40.67929 34804 ft 459 kts 72°
2026-04-21 13:47 56.48464 40.78941 34810 ft 454 kts 74°
2026-04-21 13:48 56.50048 40.89977 34814 ft 452 kts 74°
2026-04-21 13:48 56.51384 40.99124 34808 ft 451 kts 74°
2026-04-21 13:49 56.53006 41.10114 34811 ft 451 kts 74°
2026-04-21 13:49 56.54626 41.21094 34812 ft 452 kts 74°
2026-04-21 13:50 56.56243 41.32129 34812 ft 453 kts 74°
2026-04-21 13:50 56.57851 41.43193 34811 ft 455 kts 74°
2026-04-21 13:51 56.59455 41.54301 34807 ft 456 kts 74°
2026-04-21 13:51 56.61055 41.65466 34806 ft 458 kts 74°
2026-04-21 13:52 56.62648 41.76669 34808 ft 459 kts 75°
2026-04-21 13:52 56.64235 41.87897 34804 ft 460 kts 75°
2026-04-21 13:53 56.65815 41.99162 34805 ft 460 kts 75°
2026-04-21 13:53 56.67387 42.10457 34804 ft 460 kts 75°
2026-04-21 13:54 56.68947 42.21745 34803 ft 460 kts 75°
2026-04-21 13:54 56.70497 42.33039 34805 ft 460 kts 75°
2026-04-21 13:55 56.72024 42.44249 34804 ft 459 kts 75°
2026-04-21 13:55 56.73549 42.55522 34808 ft 459 kts 75°
2026-04-21 13:56 56.75263 42.66708 34809 ft 458 kts 72°
2026-04-21 13:56 56.77130 42.77796 34804 ft 457 kts 72°
2026-04-21 13:57 56.78975 42.88885 34805 ft 457 kts 72°
2026-04-21 13:57 56.80782 43.00007 34807 ft 457 kts 72°
2026-04-21 13:58 56.82565 43.11147 34806 ft 457 kts 72°
2026-04-21 13:58 56.84337 43.22305 34806 ft 458 kts 73°
2026-04-21 13:59 56.86102 43.33490 34813 ft 458 kts 73°
2026-04-21 13:59 56.87861 43.44701 34811 ft 459 kts 73°
2026-04-21 14:00 56.89611 43.55934 34798 ft 460 kts 73°
2026-04-21 14:00 56.91356 43.67207 34800 ft 460 kts 73°
2026-04-21 14:01 56.93087 43.78466 34797 ft 460 kts 73°
2026-04-21 14:01 56.94812 43.89766 34796 ft 460 kts 73°
2026-04-21 14:02 56.96527 44.01066 34793 ft 460 kts 73°
2026-04-21 14:03 56.99068 44.17966 34792 ft 460 kts 73°
2026-04-21 14:03 57.00759 44.29316 34793 ft 461 kts 73°
2026-04-21 14:04 57.02438 44.40655 34785 ft 461 kts 73°
2026-04-21 14:04 57.04108 44.52017 34789 ft 460 kts 73°
2026-04-21 14:05 57.05767 44.63386 34793 ft 460 kts 73°
2026-04-21 14:05 57.07416 44.74764 34786 ft 461 kts 73°
2026-04-21 14:06 57.09043 44.86072 34781 ft 461 kts 73°
2026-04-21 14:06 57.10673 44.97488 34779 ft 461 kts 73°
2026-04-21 14:07 57.12291 45.08898 34775 ft 461 kts 73°
2026-04-21 14:07 57.13900 45.20321 34769 ft 461 kts 74°
2026-04-21 14:08 57.15497 45.31746 34769 ft 461 kts 74°
2026-04-21 14:08 57.17084 45.43187 34764 ft 461 kts 74°
2026-04-21 14:09 57.18661 45.54638 34758 ft 461 kts 74°
2026-04-21 14:09 57.20226 45.66092 34757 ft 461 kts 74°
2026-04-21 14:10 57.21783 45.77569 34758 ft 461 kts 74°
2026-04-21 14:10 57.23318 45.88967 34751 ft 461 kts 75°
2026-04-21 14:11 57.24849 46.00431 34747 ft 461 kts 75°
2026-04-21 14:11 57.26385 46.12015 34745 ft 461 kts 75°
2026-04-21 14:12 57.27899 46.23522 34744 ft 460 kts 75°
2026-04-21 14:12 57.29402 46.35038 34738 ft 460 kts 75°
2026-04-21 14:13 57.30882 46.46466 34737 ft 460 kts 75°
2026-04-21 14:13 57.32363 46.57987 34732 ft 460 kts 75°
2026-04-21 14:14 57.33836 46.69523 34729 ft 460 kts 75°
2026-04-21 14:14 57.35594 46.80900 34720 ft 458 kts 65°
2026-04-21 14:15 57.38237 46.91633 34720 ft 458 kts 64°
2026-04-21 14:15 57.40918 47.02348 34716 ft 458 kts 64°
2026-04-21 14:16 57.43545 47.13130 34716 ft 458 kts 65°
2026-04-21 14:16 57.46127 47.23878 34711 ft 459 kts 65°
2026-04-21 14:17 57.48718 47.34707 34712 ft 459 kts 65°
2026-04-21 14:17 57.51308 47.45574 34713 ft 459 kts 65°
2026-04-21 14:18 57.53895 47.56464 34705 ft 460 kts 65°
2026-04-21 14:18 57.56472 47.67364 34711 ft 460 kts 65°
2026-04-21 14:19 57.59039 47.78277 34708 ft 460 kts 65°
2026-04-21 14:19 57.61603 47.89234 34711 ft 460 kts 65°
2026-04-21 14:20 57.64157 48.00202 34704 ft 461 kts 65°
2026-04-21 14:20 57.66699 48.11179 34709 ft 461 kts 66°
2026-04-21 14:21 57.69231 48.22168 34695 ft 460 kts 66°
2026-04-21 14:21 57.71756 48.33178 34710 ft 460 kts 66°
2026-04-21 14:22 57.74254 48.44207 34703 ft 460 kts 69°
2026-04-21 14:22 57.75686 48.55779 34718 ft 461 kts 82°
2026-04-21 14:23 57.76475 48.67700 34709 ft 461 kts 82°
2026-04-21 14:23 57.77258 48.79633 34708 ft 461 kts 82°
2026-04-21 14:24 57.78073 48.91572 34696 ft 461 kts 82°
2026-04-21 14:24 57.78894 49.03493 34697 ft 462 kts 82°
2026-04-21 14:25 57.79707 49.15441 34691 ft 462 kts 82°
2026-04-21 14:25 57.80506 49.27382 34699 ft 462 kts 82°
2026-04-21 14:26 57.81295 49.39339 34699 ft 462 kts 82°
2026-04-21 14:26 57.82071 49.51298 34694 ft 462 kts 82°
2026-04-21 14:27 57.82836 49.63264 34693 ft 462 kts 82°
2026-04-21 14:27 57.83590 49.75233 34689 ft 462 kts 83°
2026-04-21 14:28 57.84335 49.87234 34687 ft 463 kts 83°
2026-04-21 14:28 57.85066 49.99166 34688 ft 463 kts 83°
2026-04-21 14:29 57.85789 50.11171 34683 ft 463 kts 83°
2026-04-21 14:29 57.86507 50.23213 34684 ft 464 kts 83°
2026-04-21 14:30 57.87214 50.35252 34687 ft 464 kts 83°
2026-04-21 14:30 57.87909 50.47302 34683 ft 464 kts 83°
2026-04-21 14:31 57.88595 50.59386 34679 ft 465 kts 83°
2026-04-21 14:31 57.89270 50.71478 34679 ft 466 kts 84°
2026-04-21 14:32 57.89933 50.83587 34678 ft 466 kts 84°
2026-04-21 14:32 57.90587 50.95731 34668 ft 467 kts 84°
2026-04-21 14:33 57.91229 51.07877 34672 ft 467 kts 84°
2026-04-21 14:33 57.91861 51.20050 34671 ft 468 kts 84°
2026-04-21 14:34 57.92481 51.32232 34671 ft 468 kts 85°
2026-04-21 14:34 57.93093 51.44445 34665 ft 469 kts 85°
2026-04-21 14:35 57.93692 51.56591 34673 ft 469 kts 85°
2026-04-21 14:35 57.94288 51.68817 34665 ft 469 kts 85°
2026-04-21 14:36 57.94874 51.81051 34666 ft 469 kts 85°
2026-04-21 14:36 57.95355 51.91299 34662 ft 469 kts 85°
2026-04-21 14:37 57.95914 52.03418 34671 ft 469 kts 85°
2026-04-21 14:37 57.96468 52.15702 34676 ft 469 kts 86°
2026-04-21 14:38 57.97004 52.27894 34673 ft 469 kts 86°
2026-04-21 14:38 57.97533 52.40180 34670 ft 469 kts 86°
2026-04-21 14:39 57.98050 52.52430 34665 ft 469 kts 86°
2026-04-21 14:39 57.98555 52.64685 34671 ft 469 kts 86°
2026-04-21 14:40 57.99047 52.76931 34665 ft 469 kts 86°
2026-04-21 14:40 57.99529 52.89191 34676 ft 469 kts 86°
2026-04-21 14:41 57.99998 53.01448 34670 ft 468 kts 87°
2026-04-21 14:41 58.00455 53.13698 34669 ft 469 kts 87°
2026-04-21 14:42 58.00898 53.25879 34670 ft 469 kts 87°
2026-04-21 14:42 58.01332 53.38154 34669 ft 469 kts 87°
2026-04-21 14:43 58.01755 53.50442 34670 ft 469 kts 87°
2026-04-21 14:43 58.02166 53.62733 34671 ft 470 kts 88°
2026-04-21 14:44 58.02566 53.75051 34674 ft 471 kts 88°
2026-04-21 14:44 58.02956 53.87391 34675 ft 471 kts 88°
2026-04-21 14:45 58.03335 53.99745 34670 ft 472 kts 88°
2026-04-21 14:45 58.03704 54.12108 34671 ft 473 kts 88°
2026-04-21 14:46 58.04066 54.24517 34670 ft 473 kts 88°
2026-04-21 14:46 58.04418 54.36949 34668 ft 474 kts 89°
2026-04-21 14:47 58.04757 54.49384 34667 ft 474 kts 89°
2026-04-21 14:47 58.05085 54.61840 34663 ft 475 kts 89°
2026-04-21 14:48 58.05401 54.74293 34664 ft 475 kts 89°
2026-04-21 14:48 58.05046 54.86682 34676 ft 471 kts 100°
2026-04-21 14:49 58.04103 54.98843 34663 ft 471 kts 101°
2026-04-21 14:49 58.03177 55.11090 34661 ft 472 kts 100°
2026-04-21 14:50 58.02434 55.21378 34659 ft 472 kts 100°
2026-04-21 14:50 58.01394 55.35628 34655 ft 472 kts 101°
2026-04-21 14:51 58.00492 55.47885 34661 ft 471 kts 101°
2026-04-21 14:51 57.99587 55.60038 34663 ft 471 kts 101°
2026-04-21 14:52 57.98663 55.72283 34665 ft 471 kts 101°
2026-04-21 14:52 57.97730 55.84499 34663 ft 471 kts 101°
2026-04-21 14:53 57.96785 55.96717 34662 ft 470 kts 102°
2026-04-21 14:53 57.95833 56.08891 34666 ft 470 kts 102°
2026-04-21 14:54 57.94871 56.21066 34666 ft 470 kts 102°
2026-04-21 14:54 57.93899 56.33224 34669 ft 469 kts 102°
2026-04-21 14:55 57.92916 56.45356 34667 ft 469 kts 102°
2026-04-21 14:55 57.91922 56.57480 34669 ft 468 kts 103°
2026-04-21 14:56 57.90919 56.69567 34677 ft 467 kts 103°
2026-04-21 14:56 57.89914 56.81548 34680 ft 466 kts 103°
2026-04-21 14:57 57.88892 56.93572 34686 ft 465 kts 103°
2026-04-21 14:57 57.87860 57.05578 34686 ft 464 kts 103°
2026-04-21 14:58 57.86819 57.17543 34695 ft 464 kts 103°
2026-04-21 14:58 57.85769 57.29489 34699 ft 463 kts 103°
2026-04-21 14:59 57.84706 57.41438 34702 ft 463 kts 103°
2026-04-21 14:59 57.83634 57.53362 34700 ft 464 kts 104°
2026-04-21 15:00 57.82548 57.65303 34708 ft 464 kts 104°
2026-04-21 15:00 57.81451 57.77238 34709 ft 465 kts 104°
2026-04-21 15:01 57.80343 57.89185 34715 ft 465 kts 104°
2026-04-21 15:01 57.79220 58.01159 34721 ft 466 kts 104°
2026-04-21 15:02 57.78093 58.13067 34732 ft 467 kts 104°
2026-04-21 15:02 57.76951 58.25074 34731 ft 468 kts 104°
2026-04-21 15:03 57.75795 58.37093 34733 ft 469 kts 104°
2026-04-21 15:03 57.74628 58.49133 34731 ft 471 kts 104°
2026-04-21 15:04 57.73449 58.61208 34733 ft 471 kts 104°
2026-04-21 15:04 57.72259 58.73274 34739 ft 472 kts 104°
2026-04-21 15:05 57.71055 58.85359 34745 ft 473 kts 104°
2026-04-21 15:05 57.69224 59.03496 34746 ft 474 kts 105°
2026-04-21 15:06 57.67996 59.15513 34746 ft 474 kts 105°
2026-04-21 15:06 57.66746 59.27626 34744 ft 474 kts 105°
2026-04-21 15:07 57.65486 59.39714 34747 ft 475 kts 105°
2026-04-21 15:07 57.64212 59.51814 34750 ft 475 kts 105°
2026-04-21 15:08 57.62927 59.63910 34754 ft 475 kts 106°
2026-04-21 15:08 57.61630 59.75999 34748 ft 475 kts 106°
2026-04-21 15:09 57.60321 59.88078 34754 ft 476 kts 106°
2026-04-21 15:09 57.58998 60.00173 34748 ft 476 kts 106°
2026-04-21 15:10 57.57671 60.12183 34750 ft 476 kts 106°
2026-04-21 15:10 57.56324 60.24271 34749 ft 477 kts 107°
2026-04-21 15:11 57.54964 60.36360 34753 ft 477 kts 107°
2026-04-21 15:11 57.53593 60.48459 34757 ft 478 kts 107°
2026-04-21 15:12 57.52235 60.60581 34756 ft 480 kts 104°
2026-04-21 15:12 57.51721 60.73069 34757 ft 486 kts 97°
2026-04-21 15:13 57.51431 60.85625 34759 ft 486 kts 97°
2026-04-21 15:13 57.51094 60.98205 34761 ft 487 kts 97°
2026-04-21 15:14 57.50878 61.05320 34769 ft 487 kts 97°
2026-04-21 15:14 57.50831 61.06821 34755 ft 487 kts 97°
2026-04-21 15:15 57.50425 61.19451 34541 ft 490 kts 98°
2026-04-21 15:15 57.50217 61.25762 34162 ft 487 kts 98°
2026-04-21 15:15 57.50009 61.32034 33518 ft 486 kts 98°
2026-04-21 15:16 57.49797 61.38315 32824 ft 486 kts 98°
2026-04-21 15:16 57.49583 61.44580 32152 ft 486 kts 98°
2026-04-21 15:16 57.49366 61.50843 31477 ft 485 kts 98°
2026-04-21 15:16 57.49151 61.57045 31244 ft 475 kts 98°
2026-04-21 15:17 57.48935 61.63152 30643 ft 473 kts 98°
2026-04-21 15:17 57.48717 61.69213 30346 ft 465 kts 98°
2026-04-21 15:17 57.48499 61.75184 29872 ft 462 kts 98°
2026-04-21 15:17 57.48281 61.81109 29364 ft 457 kts 98°
2026-04-21 15:18 57.48062 61.86972 28895 ft 452 kts 98°
2026-04-21 15:18 57.47844 61.92756 28410 ft 447 kts 98°
2026-04-21 15:18 57.47625 61.98486 27938 ft 442 kts 99°
2026-04-21 15:18 57.47406 62.04165 27463 ft 438 kts 99°
2026-04-21 15:19 57.47186 62.09789 27006 ft 434 kts 99°
2026-04-21 15:19 57.46966 62.15371 26531 ft 431 kts 99°
2026-04-21 15:19 57.46745 62.20897 26064 ft 428 kts 99°
2026-04-21 15:19 57.46529 62.26314 25668 ft 424 kts 99°
2026-04-21 15:20 57.46312 62.31756 25217 ft 421 kts 99°
2026-04-21 15:20 57.46093 62.37168 24771 ft 419 kts 99°
2026-04-21 15:20 57.45875 62.42543 24329 ft 416 kts 99°
2026-04-21 15:20 57.45654 62.47889 23884 ft 414 kts 99°
2026-04-21 15:21 57.45433 62.53205 23443 ft 413 kts 99°
2026-04-21 15:21 57.45210 62.58521 22925 ft 411 kts 99°
2026-04-21 15:21 57.44986 62.63794 22434 ft 409 kts 99°
2026-04-21 15:21 57.44761 62.69034 21991 ft 405 kts 99°
2026-04-21 15:22 57.44537 62.74227 21544 ft 402 kts 98°
2026-04-21 15:22 57.44312 62.79386 21091 ft 400 kts 98°
2026-04-21 15:22 57.44086 62.84510 20654 ft 397 kts 98°
2026-04-21 15:22 57.43859 62.89601 20231 ft 394 kts 98°
2026-04-21 15:23 57.43631 62.94664 19801 ft 391 kts 98°
2026-04-21 15:23 57.43407 62.99619 19384 ft 389 kts 98°
2026-04-21 15:23 57.43178 63.04607 18968 ft 387 kts 98°
2026-04-21 15:23 57.42949 63.09567 18532 ft 385 kts 98°
2026-04-21 15:24 57.42794 63.12901 18264 ft 384 kts 98°
2026-04-21 15:24 57.42488 63.19422 17661 ft 381 kts 98°
2026-04-21 15:24 57.42257 63.24315 17197 ft 379 kts 98°
2026-04-21 15:24 57.42025 63.29176 16762 ft 377 kts 98°
2026-04-21 15:25 57.41794 63.33994 16337 ft 374 kts 98°
2026-04-21 15:25 57.41640 63.37169 16068 ft 372 kts 98°
2026-04-21 15:25 57.41408 63.41939 15653 ft 370 kts 98°
2026-04-21 15:25 57.41175 63.46681 15238 ft 368 kts 98°
2026-04-21 15:26 57.40942 63.51392 14843 ft 366 kts 98°
2026-04-21 15:26 57.40708 63.56083 14437 ft 364 kts 98°
2026-04-21 15:26 57.40474 63.60746 14039 ft 362 kts 98°
2026-04-21 15:26 57.40240 63.65392 13634 ft 361 kts 98°
2026-04-21 15:27 57.40004 63.70014 13190 ft 360 kts 98°
2026-04-21 15:27 57.39766 63.74622 12758 ft 358 kts 98°
2026-04-21 15:27 57.39355 63.79141 12357 ft 352 kts 106°
2026-04-21 15:27 57.38755 63.83519 11956 ft 349 kts 108°
2026-04-21 15:28 57.38117 63.87842 11567 ft 347 kts 108°
2026-04-21 15:28 57.37479 63.92139 11200 ft 344 kts 108°
2026-04-21 15:28 57.36856 63.96377 10958 ft 339 kts 108°
2026-04-21 15:28 57.36244 64.00589 10703 ft 338 kts 108°
2026-04-21 15:29 57.35639 64.04786 10455 ft 337 kts 107°
2026-04-21 15:29 57.35309 64.09071 10198 ft 338 kts 93°
2026-04-21 15:29 57.35349 64.13423 9968 ft 337 kts 90°
2026-04-21 15:29 57.35434 64.17776 9729 ft 339 kts 90°
2026-04-21 15:30 57.35521 64.22125 9460 ft 335 kts 90°
2026-04-21 15:30 57.35598 64.26336 9175 ft 320 kts 91°
2026-04-21 15:30 57.35654 64.30359 8997 ft 304 kts 91°
2026-04-21 15:30 57.35700 64.34176 8866 ft 290 kts 91°
2026-04-21 15:31 57.35740 64.37874 8763 ft 286 kts 91°
2026-04-21 15:31 57.35779 64.41547 8659 ft 285 kts 92°
2026-04-21 15:31 57.35816 64.45200 8570 ft 282 kts 92°
2026-04-21 15:31 57.35854 64.48818 8488 ft 280 kts 92°
2026-04-21 15:32 57.35890 64.52421 8414 ft 281 kts 92°
2026-04-21 15:32 57.35926 64.56060 8348 ft 285 kts 92°
2026-04-21 15:32 57.35961 64.59767 8276 ft 288 kts 92°
2026-04-21 15:32 57.35997 64.63461 8222 ft 285 kts 92°
2026-04-21 15:33 57.36032 64.67082 8136 ft 284 kts 92°
2026-04-21 15:33 57.36065 64.70738 8064 ft 284 kts 92°
2026-04-21 15:33 57.36097 64.74403 7931 ft 285 kts 92°
2026-04-21 15:33 57.36128 64.78093 7753 ft 289 kts 92°
2026-04-21 15:34 57.36158 64.81836 7507 ft 292 kts 92°
2026-04-21 15:34 57.36189 64.85578 7240 ft 289 kts 92°
2026-04-21 15:34 57.36218 64.89281 6998 ft 286 kts 92°
2026-04-21 15:34 57.36246 64.92949 6738 ft 284 kts 92°
2026-04-21 15:35 57.36272 64.96587 6498 ft 281 kts 92°
2026-04-21 15:35 57.36296 65.00195 6244 ft 279 kts 92°
2026-04-21 15:35 57.36320 65.03777 5985 ft 277 kts 93°
2026-04-21 15:35 57.36342 65.07340 5725 ft 276 kts 93°
2026-04-21 15:36 57.36363 65.10878 5461 ft 274 kts 94°
2026-04-21 15:36 57.36383 65.14397 5205 ft 272 kts 94°
2026-04-21 15:36 57.36402 65.17897 4943 ft 271 kts 94°
2026-04-21 15:36 57.36420 65.21379 4691 ft 269 kts 94°
2026-04-21 15:37 57.36438 65.24839 4435 ft 268 kts 95°
2026-04-21 15:37 57.36455 65.28267 4207 ft 263 kts 95°
2026-04-21 15:37 57.36471 65.31593 3959 ft 255 kts 95°
2026-04-21 15:37 57.36485 65.34805 3834 ft 241 kts 95°
2026-04-21 15:38 57.36499 65.37800 3798 ft 225 kts 97°
2026-04-21 15:38 57.36165 65.40406 3739 ft 196 kts 127°
2026-04-21 15:38 57.35341 65.42311 3748 ft 187 kts 142°
2026-04-21 15:38 57.34361 65.43963 3533 ft 192 kts 144°
2026-04-21 15:39 57.33379 65.45583 3426 ft 186 kts 143°
2026-04-21 15:39 57.32429 65.47152 3323 ft 180 kts 143°
2026-04-21 15:39 57.31516 65.48670 3262 ft 174 kts 143°
2026-04-21 15:39 57.30570 65.50010 3165 ft 167 kts 160°
2026-04-21 15:40 57.29494 65.50488 3096 ft 155 kts 178°
2026-04-21 15:40 57.28446 65.50234 2976 ft 156 kts 194°
2026-04-21 15:40 57.27479 65.49284 2831 ft 162 kts 215°
2026-04-21 15:40 57.26707 65.47815 2759 ft 157 kts 217°
2026-04-21 15:41 57.25950 65.46365 2560 ft 157 kts 217°
2026-04-21 15:41 57.25225 65.44916 2382 ft 149 kts 217°
2026-04-21 15:41 57.24531 65.43518 2165 ft 147 kts 216°
2026-04-21 15:41 57.23832 65.42104 1948 ft 150 kts 217°
2026-04-21 15:42 57.23132 65.40677 1746 ft 151 kts 217°
2026-04-21 15:42 57.22402 65.39208 1537 ft 160 kts 217°
2026-04-21 15:42 57.21653 65.37693 1294 ft 158 kts 219°
2026-04-21 15:42 57.20911 65.36202 1029 ft 157 kts 224°
2026-04-21 15:43 57.20183 65.34718 798 ft 155 kts 224°
2026-04-21 15:43 57.19459 65.33248 597 ft 155 kts 227°
2026-04-21 15:43 57.18734 65.31770 392 ft 154 kts 227°
2026-04-21 15:43 57.18102 65.30483 372 ft 130 kts 226°
2026-04-21 15:44 57.17588 65.29459 386 ft 86 kts 227°
2026-04-21 15:44 57.17300 65.28880 383 ft 51 kts 227°
2026-04-21 15:44 57.17098 65.28472 384 ft 36 kts 227°
2026-04-21 15:44 57.16967 65.28208 378 ft 14 kts 227°
2026-04-21 15:45 57.16896 65.28241 376 ft 13 kts 111°
2026-04-21 15:45 57.16874 65.28366 379 ft 0 kts 110°
2026-04-21 15:46 57.16871 65.28382 379 ft 3 kts 109°
2026-04-21 15:46 57.16859 65.28446 381 ft 8 kts 107°
2026-04-21 15:46 57.16878 65.28564 382 ft 13 kts 49°
2026-04-21 15:47 57.16950 65.28710 386 ft 17 kts 48°
2026-04-21 15:47 57.17038 65.28889 387 ft 19 kts 47°
2026-04-21 15:47 57.17126 65.29067 387 ft 19 kts 47°
2026-04-21 15:47 57.17211 65.29239 387 ft 18 kts 47°
2026-04-21 15:48 57.17294 65.29405 386 ft 17 kts 47°
2026-04-21 15:48 57.17373 65.29565 388 ft 17 kts 47°
2026-04-21 15:48 57.17449 65.29721 389 ft 16 kts 47°
2026-04-21 15:48 57.17531 65.29886 385 ft 20 kts 48°
2026-04-21 15:49 57.17624 65.30074 381 ft 20 kts 47°
2026-04-21 15:49 57.17714 65.30257 378 ft 19 kts 47°
2026-04-21 15:49 57.17800 65.30432 375 ft 18 kts 47°
2026-04-21 15:49 57.17884 65.30603 375 ft 18 kts 48°
2026-04-21 15:50 57.17966 65.30769 373 ft 17 kts 47°
2026-04-21 15:50 57.18054 65.30947 373 ft 21 kts 47°
2026-04-21 15:50 57.18147 65.31133 366 ft 19 kts 47°
2026-04-21 15:50 57.18234 65.31310 361 ft 18 kts 48°
2026-04-21 15:51 57.18318 65.31481 362 ft 18 kts 48°
2026-04-21 15:51 57.18399 65.31646 359 ft 17 kts 47°
2026-04-21 15:51 57.18452 65.31777 356 ft 10 kts 75°
2026-04-21 15:51 57.18457 65.31905 356 ft 12 kts 88°
2026-04-21 15:52 57.18461 65.32122 343 ft 21 kts 88°
2026-04-21 15:52 57.18466 65.32374 338 ft 19 kts 88°
2026-04-21 15:52 57.18470 65.32618 333 ft 19 kts 88°
2026-04-21 15:52 57.18474 65.32854 330 ft 18 kts 88°
2026-04-21 15:53 57.18477 65.33065 333 ft 14 kts 88°
2026-04-21 15:53 57.18480 65.33245 334 ft 14 kts 92°
2026-04-21 15:53 57.18430 65.33394 338 ft 15 kts 134°
2026-04-21 15:53 57.18340 65.33561 335 ft 20 kts 135°
2026-04-21 15:54 57.18243 65.33743 337 ft 20 kts 134°
2026-04-21 15:54 57.18147 65.33920 339 ft 19 kts 135°
2026-04-21 15:54 57.18045 65.34110 344 ft 21 kts 135°
2026-04-21 15:54 57.17939 65.34308 347 ft 22 kts 135°
2026-04-21 15:55 57.17886 65.34454 347 ft 13 kts 85°
2026-04-21 15:55 57.17946 65.34595 338 ft 15 kts 45°
2026-04-21 15:55 57.18006 65.34737 336 ft 11 kts 73°
2026-04-21 15:55 57.18030 65.34808 338 ft 5 kts 43°
2026-04-21 15:56 57.18052 65.34846 339 ft 2 kts 45°
2026-04-21 15:56 57.18055 65.34853 340 ft 0 kts 45°